CW2014 Weather Reports


time (UTC)temp
F
wind
direction
speed
knots
gust
knots
rain 1hr
in
rain 24hr
in
rain mn
in
humidity
%
barometer
mb
20260503045028 80 99 1.7 5.2 0.00 0.00 0.00 21 1008.6
20260503044543 80 92 0.9 2.6 0.00 0.00 0.00 21 1008.5
20260503044023 80 92 1.7 2.6 0.00 0.00 0.00 21 1008.3
20260503043524 80 91 0.9 2.6 0.00 0.00 0.00 21 1008.4
20260503043043 80 91 1.7 2.6 0.00 0.00 0.00 22 1008.2
20260503042525 81 182 0.0 1.7 0.00 0.00 0.00 22 1008.2
20260503042025 81 182 0.0 0.9 0.00 0.00 0.00 21 1008.2
20260503041535 81 0 0.0 0.0 0.00 0.00 0.00 21 1008.1
20260503041029 81 0 0.0 0.0 0.00 0.00 0.00 22 1008.0
20260503040524 82 0 0.0 0.0 0.00 0.00 0.00 22 1007.9
20260503040042 82 0 0.0 0.0 0.00 0.00 0.00 22 1007.8
20260503035527 82 0 0.0 0.0 0.00 0.00 0.00 22 1007.8
20260503035025 82 0 0.0 0.0 0.00 0.00 0.00 21 1007.8
20260503034540 83 0 0.0 0.9 0.00 0.00 0.00 21 1007.6
20260503034025 83 0 0.0 0.9 0.00 0.00 0.00 21 1007.7
20260503033525 84 0 0.0 0.9 0.00 0.00 0.00 23 1007.6
20260503033047 84 182 0.0 0.9 0.00 0.00 0.00 20 1007.5
20260503032525 84 0 0.0 1.7 0.00 0.00 0.00 20 1007.6
20260503032022 84 0 0.0 1.7 0.00 0.00 0.00 19 1007.5
20260503031539 84 182 0.0 0.9 0.00 0.00 0.00 20 1007.5
20260503031026 84 0 0.0 0.9 0.00 0.00 0.00 21 1007.5
20260503030525 85 0 0.0 0.0 0.00 0.00 0.00 20 1007.5
20260503030043 85 0 0.0 0.0 0.00 0.00 0.00 19 1007.5
20260503025525 85 0 0.0 0.0 0.00 0.00 0.00 19 1007.4
20260503025025 86 0 0.0 0.0 0.00 0.00 0.00 18 1007.4
20260503024541 86 0 0.0 0.0 0.00 0.00 0.00 18 1007.5
20260503024025 87 0 0.0 0.0 0.00 0.00 0.00 18 1007.3
20260503023525 87 0 0.0 1.7 0.00 0.00 0.00 17 1007.4
20260503023040 87 0 0.0 1.7 0.00 0.00 0.00 16 1007.3
20260503022524 88 182 0.0 1.7 0.00 0.00 0.00 16 1007.3
20260503022031 88 0 0.0 1.7 0.00 0.00 0.00 15 1007.3
20260503021538 88 182 0.0 1.7 0.00 0.00 0.00 15 1007.3
20260503021028 88 0 0.0 0.9 0.00 0.00 0.00 15 1007.3
20260503020522 89 0 0.0 0.9 0.00 0.00 0.00 15 1007.2
20260503020039 89 0 0.0 2.6 0.00 0.00 0.00 15 1007.3
20260503015525 89 182 0.0 2.6 0.00 0.00 0.00 14 1007.4
20260503015025 89 0 0.0 2.6 0.00 0.00 0.00 14 1007.6
20260503014543 90 0 0.0 2.6 0.00 0.00 0.00 14 1007.6
20260503014025 90 0 0.0 0.9 0.00 0.00 0.00 14 1007.6
20260503013525 90 0 0.0 0.9 0.00 0.00 0.00 14 1007.6
20260503013050 90 0 0.0 3.5 0.00 0.00 0.00 14 1007.5
20260503012525 90 0 0.0 3.5 0.00 0.00 0.00 14 1007.6
20260503012025 90 124 0.0 3.5 0.00 0.00 0.00 14 1007.8
20260503011543 91 0 0.0 3.5 0.00 0.00 0.00 14 1007.8
20260503011026 91 73 0.0 2.6 0.00 0.00 0.00 14 1007.9
20260503010524 91 0 0.0 3.5 0.00 0.00 0.00 14 1007.9
20260503010056 90 0 0.0 7.0 0.00 0.00 0.00 14 1007.9
20260503005525 91 158 0.9 7.0 0.00 0.00 0.00 14 1007.8
20260503005028 91 77 0.9 7.0 0.00 0.00 0.00 14 1007.8
20260503004537 91 110 0.9 5.2 0.00 0.00 0.00 14 1007.8
20260503004025 91 0 0.0 5.2 0.00 0.00 0.00 14 1007.9
20260503003525 91 180 1.7 4.3 0.00 0.00 0.00 14 1007.8
20260503003043 91 173 0.9 6.1 0.00 0.00 0.00 14 1007.8
20260503002525 91 0 1.7 9.6 0.00 0.00 0.00 14 1007.9
20260503002025 91 148 1.7 9.6 0.00 0.00 0.00 14 1007.7
20260503001541 92 140 1.7 5.2 0.00 0.00 0.00 13 1007.6
20260503001025 92 39 0.9 4.3 0.00 0.00 0.00 13 1007.7
20260503000524 92 58 0.9 5.2 0.00 0.00 0.00 13 1007.9
20260503000039 92 49 0.0 5.2 0.00 0.00 0.00 13 1007.9
20260502235524 92 241 0.9 5.2 0.00 0.00 0.00 13 1008.0
20260502235027 91 0 0.0 7.0 0.00 0.00 0.00 13 1007.9
20260502234540 92 92 1.7 7.8 0.00 0.00 0.00 13 1007.9
20260502234025 92 75 2.6 7.8 0.00 0.00 0.00 14 1008.0
20260502233524 92 113 0.0 4.3 0.00 0.00 0.00 13 1007.9
20260502233038 92 239 1.7 4.3 0.00 0.00 0.00 13 1008.0
20260502232524 92 116 0.0 3.5 0.00 0.00 0.00 13 1008.0
20260502232025 92 32 0.9 7.0 0.00 0.00 0.00 13 1008.1
20260502231538 92 0 1.7 9.6 0.00 0.00 0.00 12 1008.0
20260502231025 92 190 2.6 9.6 0.00 0.00 0.00 13 1007.9
20260502230525 92 147 1.7 7.8 0.00 0.00 0.00 14 1007.9
20260502230046 92 163 0.9 5.2 0.00 0.00 0.00 13 1008.0
20260502225525 92 0 0.9 6.1 0.00 0.00 0.00 13 1008.0
20260502225025 93 308 0.9 7.8 0.00 0.00 0.00 13 1008.1
20260502224542 93 179 2.6 7.8 0.00 0.00 0.00 13 1008.3
20260502224025 93 174 2.6 7.8 0.00 0.00 0.00 13 1008.3
20260502223527 93 215 2.6 10.4 0.00 0.00 0.00 13 1008.5
20260502223044 93 221 2.6 10.4 0.00 0.00 0.00 12 1008.5
20260502222526 94 142 2.6 6.1 0.00 0.00 0.00 13 1008.4
20260502222024 93 0 0.9 6.1 0.00 0.00 0.00 13 1008.6
20260502221545 93 352 0.9 7.8 0.00 0.00 0.00 13 1008.6
20260502221027 93 0 2.6 8.7 0.00 0.00 0.00 13 1008.7
20260502220522 94 157 2.6 10.4 0.00 0.00 0.00 13 1008.8
20260502220046 94 202 4.3 10.4 0.00 0.00 0.00 13 1008.8
20260502215526 94 167 1.7 6.1 0.00 0.00 0.00 13 1008.9
20260502215022 93 205 1.7 7.8 0.00 0.00 0.00 13 1009.0
20260502214552 94 298 2.6 7.8 0.00 0.00 0.00 13 1009.1
20260502214025 93 205 0.9 7.8 0.00 0.00 0.00 13 1009.1
20260502213525 93 0 1.7 7.8 0.00 0.00 0.00 12 1009.2
20260502213039 93 0 1.7 8.7 0.00 0.00 0.00 15 1009.3
20260502212525 94 135 1.7 8.7 0.00 0.00 0.00 15 1009.4
20260502212027 94 192 3.5 7.8 0.00 0.00 0.00 15 1009.5
20260502211539 94 0 0.9 6.1 0.00 0.00 0.00 15 1009.5
20260502211025 95 137 1.7 6.1 0.00 0.00 0.00 15 1009.6
20260502210525 94 0 0.0 7.0 0.00 0.00 0.00 14 1009.7
20260502210049 94 186 1.7 7.0 0.00 0.00 0.00 13 1009.6
20260502205522 93 216 0.9 7.0 0.00 0.00 0.00 14 1009.7
20260502205025 93 210 0.9 11.3 0.00 0.00 0.00 14 1009.9
20260502204541 93 190 4.3 11.3 0.00 0.00 0.00 14 1010.0
20260502204025 92 238 2.6 9.6 0.00 0.00 0.00 17 1010.0
20260502203525 92 188 2.6 12.2 0.00 0.00 0.00 17 1010.0
20260502203050 92 148 4.3 12.2 0.00 0.00 0.00 17 1010.2
20260502202528 92 142 3.5 12.2 0.00 0.00 0.00 18 1010.1
20260502202024 91 301 0.9 7.8 0.00 0.00 0.00 17 1010.3
20260502201546 91 322 1.7 11.3 0.00 0.00 0.00 17 1010.3
20260502201025 91 135 3.5 11.3 0.00 0.00 0.00 18 1010.5
20260502200525 91 138 2.6 9.6 0.00 0.00 0.00 19 1010.4
20260502200038 91 157 1.7 8.7 0.00 0.00 0.00 19 1010.5
20260502195525 91 154 3.5 9.6 0.00 0.00 0.00 20 1010.7
20260502195025 91 129 0.9 9.6 0.00 0.00 0.00 20 1010.6
20260502194537 91 90 3.5 9.6 0.00 0.00 0.00 20 1010.8
20260502194025 90 160 1.7 10.4 0.00 0.00 0.00 20 1010.8
20260502193525 90 155 0.9 10.4 0.00 0.00 0.00 20 1010.8
20260502193041 90 245 1.7 11.3 0.00 0.00 0.00 20 1010.9
20260502192524 90 184 5.2 11.3 0.00 0.00 0.00 20 1011.0
20260502192024 90 153 1.7 8.7 0.00 0.00 0.00 20 1011.1
20260502191539 89 180 1.7 9.6 0.00 0.00 0.00 22 1011.2
20260502191024 90 157 4.3 12.2 0.00 0.00 0.00 21 1011.3
20260502190525 89 147 5.2 12.2 0.00 0.00 0.00 21 1011.4
20260502190039 89 144 2.6 10.4 0.00 0.00 0.00 22 1011.4
20260502185525 89 122 2.6 10.4 0.00 0.00 0.00 22 1011.5
20260502185025 89 124 4.3 13.0 0.00 0.00 0.00 22 1011.5
20260502184539 89 171 4.3 13.0 0.00 0.00 0.00 22 1011.6
20260502184025 89 142 3.5 9.6 0.00 0.00 0.00 23 1011.7
20260502183525 88 171 2.6 8.7 0.00 0.00 0.00 24 1011.7
20260502183042 89 141 4.3 8.7 0.00 0.00 0.00 24 1011.9
20260502182529 88 136 2.6 10.4 0.00 0.00 0.00 24 1012.0
20260502182022 88 125 3.5 10.4 0.00 0.00 0.00 23 1012.1
20260502181539 88 173 2.6 14.8 0.00 0.00 0.00 25 1012.2
20260502181023 88 174 6.1 14.8 0.00 0.00 0.00 25 1012.2
20260502180526 88 163 4.3 12.2 0.00 0.00 0.00 25 1012.2
20260502164026 83 96 3.5 11.3 0.00 0.00 0.00 29 1012.5
20260502163525 83 121 6.1 12.2 0.00 0.00 0.00 30 1012.4
20260502163042 83 110 5.2 12.2 0.00 0.00 0.00 29 1012.4
20260502162529 83 116 4.3 12.2 0.00 0.00 0.00 29 1012.4
20260502162025 83 159 4.3 12.2 0.00 0.00 0.00 29 1012.5
20260502161539 82 155 5.2 12.2 0.00 0.00 0.00 31 1012.4
20260502161029 82 135 4.3 13.9 0.00 0.00 0.00 30 1012.5
20260502160528 82 98 5.2 13.9 0.00 0.00 0.00 31 1012.3
20260502152022 80 177 7.0 12.2 0.00 0.00 0.00 32 1012.1
20260502151543 80 144 4.3 16.5 0.00 0.00 0.00 33 1012.0
20260502151025 79 159 4.3 16.5 0.00 0.00 0.00 33 1011.9
20260502150525 79 107 5.2 15.6 0.00 0.00 0.00 33 1011.8
20260502130528 72 112 1.7 7.0 0.00 0.00 0.00 41 1010.6
20260502123525 71 91 2.6 8.7 0.00 0.00 0.00 38 1010.1
20260502123042 71 84 4.3 10.4 0.00 0.00 0.00 37 1010.0
20260502122525 71 108 2.6 10.4 0.00 0.00 0.00 37 1009.9
20260502122025 70 92 3.5 7.8 0.00 0.00 0.00 37 1009.9
20260502121538 70 89 3.5 7.8 0.00 0.00 0.00 36 1009.8
20260502121026 69 115 2.6 7.8 0.00 0.00 0.00 35 1009.9
20260502120525 68 109 3.5 6.1 0.00 0.00 0.00 35 1009.8
20260502115525 67 121 0.9 5.2 0.00 0.00 0.00 34 1009.7
20260502115025 67 155 2.6 7.0 0.00 0.00 0.00 34 1009.7
20260502114600 67 155 1.7 7.0 0.00 0.00 0.00 34 1009.6
20260502114025 67 162 1.7 3.5 0.00 0.00 0.00 34 1009.7
20260502113526 67 158 1.7 3.5 0.00 0.00 0.00 34 1009.6
20260502113042 67 144 0.9 3.5 0.00 0.00 0.00 34 1009.6
20260502112523 67 150 0.9 4.3 0.00 0.00 0.00 34 1009.6
20260502112024 67 124 0.9 4.3 0.00 0.00 0.00 34 1009.7
20260502111539 67 97 0.9 1.7 0.00 0.00 0.00 34 1009.7
20260502111023 66 94 0.0 1.7 0.00 0.00 0.00 34 1009.7
20260502110525 66 0 0.0 0.0 0.00 0.00 0.00 35 1009.7
20260502110039 66 0 0.0 0.0 0.00 0.00 0.00 35 1009.7
20260502105525 66 0 0.0 0.0 0.00 0.00 0.00 35 1009.6
20260502105025 67 0 0.0 0.0 0.00 0.00 0.00 35 1009.6
20260502104537 67 0 0.0 0.9 0.00 0.00 0.00 35 1009.5
20260502104025 67 0 0.0 1.7 0.00 0.00 0.00 34 1009.5
20260502103525 67 0 0.0 1.7 0.00 0.00 0.00 33 1009.4
20260502103040 67 0 0.0 2.6 0.00 0.00 0.00 33 1009.4
20260502102525 68 138 0.0 2.6 0.00 0.00 0.00 33 1009.3
20260502102024 68 138 0.0 1.7 0.00 0.00 0.00 33 1009.4
20260502101558 68 138 0.0 3.5 0.00 0.00 0.00 33 1009.3
20260502101024 68 140 0.9 3.5 0.00 0.00 0.00 33 1009.2
20260502100525 68 153 0.9 3.5 0.00 0.00 0.00 33 1009.3
20260502091024 68 126 0.9 4.3 0.00 0.00 0.00 33 1009.2
20260502090524 68 157 1.7 5.2 0.00 0.00 0.00 33 1009.1
20260502071025 70 125 0.9 2.6 0.00 0.00 0.00 35 1009.1
20260502070522 71 125 0.9 2.6 0.00 0.00 0.00 36 1009.1
20260502070048 71 125 0.9 2.6 0.00 0.00 0.00 34 1009.2
20260502065525 71 0 0.0 1.7 0.00 0.00 0.00 34 1009.1
20260502065027 71 0 0.0 1.7 0.00 0.00 0.00 35 1009.0
20260502064552 71 0 0.0 1.7 0.00 0.00 0.00 35 1008.9
20260502064025 71 125 0.9 2.6 0.00 0.00 0.00 34 1008.9
20260502063526 72 145 0.9 2.6 0.00 0.00 0.00 34 1008.8
20260502063052 72 119 0.0 2.6 0.00 0.00 0.00 34 1008.8
20260502062525 72 119 0.9 3.5 0.00 0.00 0.00 34 1008.8
20260502062025 72 119 0.9 3.5 0.00 0.00 0.00 34 1008.7
20260502061542 72 103 0.9 3.5 0.00 0.00 0.00 34 1008.6
20260502061025 72 141 0.9 2.6 0.00 0.00 0.00 34 1008.6
20260502060527 72 141 0.9 2.6 0.00 0.00 0.00 33 1008.7
20260502060045 73 141 0.0 1.7 0.00 0.00 0.00 33 1008.5
20260502055526 73 0 0.9 1.7 0.00 0.00 0.00 33 1008.6
20260502055026 73 141 0.9 1.7 0.00 0.00 0.00 33 1008.6
20260502054539 73 0 0.0 0.9 0.00 0.00 0.00 34 1008.5
20260502054025 73 0 0.0 1.7 0.00 0.00 0.00 33 1008.5
20260502053525 73 0 0.0 1.7 0.00 0.00 0.00 33 1008.5
20260502053052 74 141 0.0 1.7 0.00 0.00 0.00 32 1008.5
20260502052526 74 0 0.0 1.7 0.00 0.00 0.00 32 1008.5
20260502052025 74 141 0.0 1.7 0.00 0.00 0.00 32 1008.4
20260502051540 74 0 0.0 1.7 0.00 0.00 0.00 31 1008.5
20260502051027 74 141 0.0 1.7 0.00 0.00 0.00 31 1008.3
20260502050526 75 141 0.0 1.7 0.00 0.00 0.00 31 1008.3
20260502050039 75 0 0.0 1.7 0.00 0.00 0.00 31 1008.2
20260502045526 75 141 0.9 2.6 0.00 0.00 0.00 30 1008.2